Location: Amsterdam
(30.7274°N, 84.4357°W)
Time: 08:02:55
(UTC+00:00)

MOZHAYETS 4 - Pass Details

Date: 14 March 2026
Orbit: 642 x 659 km, 98.3° (Epoch: 19 April)

Event Time Altitude Azimuth Distance (km) Brightness Sun altitude
Rises 11:09:44 0° 182° (S) 2,971 11.0 -9.2°
Reaches altitude 10° 11:12:02 10° 189° (S) 2,064 10.1 -8.7°
Maximum altitude 11:16:18 43° 260° (W) 930 8.0 -7.8°
Drops below altitude 10° 11:20:37 10° 332° (NNW) 2,075 10.0 -6.9°
Sets 11:22:56 0° 339° (NNW) 2,990 10.9 -6.4°
